Regional Weather Roundup
Issued by NWS

Home | Current Version | Previous Version | Graphics & Text | Print | Product List | Glossary On
Versions: 1 2 3 4 5 6 7 8 9 10 11 12 13 14 15 16 17 18 19 20 21 22 23 24 25 26 27 28
000
ASUS45 KSLC 262310
RWRUT

UTAH REGIONAL WEATHER ROUNDUP
NATIONAL WEATHER SERVICE SALT LAKE CITY UT
500 PM MDT MON JUN 26 2017

UTZ001>011-023>025-270000-

NORTHERN UTAH

CITY           SKY/WX    TMP DP  RH WIND       PRES   REMARKS
BRIGHAM CITY   MOSUNNY   93  29  10 SE3       29.95F
DUGWAY         PTSUNNY   97  25   7 S10G17    29.90  HX  90
HILL AFB       MOSUNNY   94  32  11 CALM      29.99F
LOGAN          MOSUNNY   94  37  13 SW10      29.96F
OGDEN          MOSUNNY   96  32  10 S10       29.95F HX  90
SALT LAKE CITY PTSUNNY   99  30   9 S16       29.92F HX  93
TOOELE VALLEY  MOSUNNY   93  52  24 N14       29.93F HX  90
WENDOVER         N/A     92  33  12 VRB3      29.93F
HEBER CITY     PTSUNNY   88  32  13 S3        30.08F
WEST JORDAN    SUNNY     96  55  25 SE15      29.97F HX  94

$$

UTZ011>015-024>027-270000-

CENTRAL/NORTHEAST UTAH

CITY           SKY/WX    TMP DP  RH WIND       PRES   REMARKS
PROVO AIRPORT  MOSUNNY   96  32  10 E5        29.97F HX  90
MOAB/CANYONLAN SUNNY    100  14   4 VRB5      29.96F HX  92
DELTA          SUNNY     97  27   8 SW9G17    29.96F HX  90
PRICE          MOSUNNY   90  25   9 SW10      30.09F
RICHFIELD        N/A     93  30  10 N6        30.04F
VERNAL         CLOUDY    89  35  14 N18       30.07S

$$

UTZ013>016-019>022-027-270000-

SOUTHERN UTAH

CITY           SKY/WX    TMP DP  RH WIND       PRES   REMARKS
BRYCE CANYON   SUNNY     85  23  10 SW16G30   30.28F
CEDAR CITY     SUNNY     93  17   6 SW24G37   30.09F
MILFORD        SUNNY     97  21   6 S25G35    30.00F HX  90
ST GEORGE      MOCLDY   105  15   4 SW29G37   29.86F HX  96
HANKSVILLE     PTSUNNY   99  27   8 S8        29.98F HX  92
KANAB          SUNNY     97  21   6 SW18G30   30.08F HX  90
BLANDING       SUNNY     91  31  12 CALM      30.19F

$$

REGIONAL REPORTS     COLORADO/ARIZONA

CITY           SKY/WX    TMP DP  RH WIND       PRES   REMARKS
CRAIG, CO      SUNNY     90  17   7 NW10      30.15F
GRAND JUNCTION SUNNY     97  18   6 NW17G25   30.00F HX  90
RIFLE, CO      CLOUDY    91  23   8 NW8       30.07F
MONTROSE, CO   SUNNY     93  25   8 NW8       30.09F
CORTEZ, CO     SUNNY     93  27   9 NW16      30.13F
COLORADO CITY    N/A     99  27   8 SW21G29   30.09F HX  92
PAGE, AZ       MOSUNNY  102  27   7 SW14G20   29.96F HX  95
GRAND CANYON   SUNNY     90  22   8 W16G28    30.24F
KINGMAN, AZ    SUNNY    102  29   7 SW21G35   30.00F HX  95
FLAGSTAFF, AZ  MOSUNNY   87  23   9 W10G22    30.27F

$$

REGIONAL REPORTS    NEVADA/IDAHO/WYOMING

CITY           SKY/WX    TMP DP  RH WIND       PRES   REMARKS
LAS VEGAS, NV  SUNNY    108   1   2 SW20G28   29.81F HX  98
ELY, NY        SUNNY     93  36  13 S18       30.06F
ELKO, NV       PTSUNNY   88  36  15 S7        29.96S
POCATELLO, ID  MOSUNNY   96  41  15 VRB5      29.93F HX  92
BURLEY, ID     CLOUDY    92  44  19 NE5       29.86F
FORT BRIDGER,  MOCLDY    83  27  13 SW5       30.22F
EVANSTON, WY   CLOUDY    85  33  15 W21G28    30.21F
ROCK SPRINGS,  SUNNY     87  18   8 NW10G23   30.16F
KEMMERER, WY     N/A    N/A N/A N/A NW9G17    30.23F

$$




USA.gov is the U.S. government's official web portal to all federal, state and local government web resources and services.